Home   Weather   Wheaton   Past weeks

Flag for USA Past Weather in Wheaton, Illinois, USA — Yesterday and Last 2 Weeks

Now
63 °F

Overcast.


Feels Like: 63 °F
Forecast: 57 / 64 °F
Wind: 8 mph from North

Location: Dupage Airport

Current Time: Oct 1, 2016 at 5:24:22 PM

Latest Report: Oct 1, 2016 at 4:52 PM


Visibility: 10 mi

Pressure: 29.97 "Hg

Humidity: 84%

Dew Point: 58 °F

Location of WheatonLocation

Past Weather in Wheaton — Graph

°F

Wheaton Temperature Yesterday

Maximum temperature yesterday: 65 °F (at 2:52 PM)
Minimum temperature yesterday: 60 °F (at 1:52 AM)
Average temperature yesterday: 62 °F

High & Low Weather Summary for the Past Weeks

 TemperatureHumidityPressure
High87 °F (Sep 19, 2:52 PM)93% (Sep 17, 6:52 AM)30.24 "Hg (Sep 17, 6:52 AM)
Low48 °F (Sep 27, 5:52 AM)26% (Sep 26, 3:52 PM)29.74 "Hg (Sep 27, 3:52 PM)
Average66 °F72%30.02 "Hg
* Reported Sep 16 3:52 PM — Oct 1 3:52 PM, Wheaton, Weather by CustomWeather, © 2016

Note: Actual official high and low records may vary slightly from our data, if they occured in-between our weather recording intervals... More about our weather records

Advertising

Wheaton Weather History for the Previous 24 Hours

Scroll right to see more
 ConditionsComfort  
Time TempWeatherWind HumidityBarometerVisibility
3:52 PM
Sat, Oct 1
64 °FCloudy.9 mph81%29.97 "Hg10 mi
2:59 PM64 °FLight rain. Cloudy.6 mph84%29.98 "Hg10 mi
1:52 PM63 °FMostly cloudy.8 mph87%29.98 "Hg10 mi
12:52 PM62 °FLight rain. Mostly cloudy.9 mph86%30.00 "Hg9 mi
12:00 PM61 °FLight rain. Fog.No wind93%30.02 "Hg3 mi
10:52 AM61 °FLight rain. Fog.5 mph90%30.02 "Hg5 mi
9:52 AM61 °FLight rain. Mostly cloudy.8 mph90%30.02 "Hg10 mi
8:52 AM59 °FOvercast.10 mph87%30.01 "Hg10 mi
7:52 AM56 °FFog.5 mph93%30.02 "Hg5 mi
6:52 AM54 °FFog.5 mph93%30.02 "Hg6 mi
5:52 AM54 °FPassing clouds.6 mph93%30.03 "Hg9 mi
4:52 AM56 °FClear.3 mph93%30.02 "Hg9 mi
3:52 AM58 °FPassing clouds.5 mph90%30.02 "Hg10 mi
2:52 AM61 °FOvercast.6 mph87%30.03 "Hg10 mi
1:52 AM61 °FOvercast.3 mph90%30.03 "Hg10 mi
12:59 AM61 °FMostly cloudy.5 mph90%30.04 "Hg10 mi
11:52 PM
Fri, Sep 30
61 °FOvercast.6 mph90%30.04 "Hg10 mi
10:52 PM61 °FOvercast.8 mph90%30.04 "Hg10 mi
9:52 PM61 °FOvercast.7 mph90%30.05 "Hg10 mi
8:52 PM62 °FOvercast.7 mph86%30.05 "Hg10 mi
7:52 PM63 °FMostly cloudy.10 mph81%30.06 "Hg10 mi
6:52 PM63 °FMostly cloudy.13 mph84%30.07 "Hg10 mi
5:52 PM63 °FLight rain. Overcast.12 mph84%30.07 "Hg7 mi
Weather by CustomWeather, © 2016

See weather overviewHow to use our weather pages